Location: Chevoux
(46.3801°N, 4.9476°E)
Time: 02:43:36
(UTC+00:00)

deb Explorer IX - Visible Passes

Search period start: 12 May 2021 00:00
Search period end: 22 May 2021 00:00
Orbit: 541 x 1098 km, 38.8° (Epoch: 11 May)

Date Brightness Start Highest point End Pass type
(mag) Time Alt. Az. Time Alt. Az. Time Alt. Az.
12 May ? 02:39:31 11° S 02:39:31 11° S 02:39:55 10° S visible
12 May ? 20:49:57 10° SSW 20:55:02 24° SSE 20:55:31 23° SSE visible
12 May ? 22:35:44 10° WSW 22:36:53 15° SW 22:36:53 15° SW visible
13 May ? 20:25:56 10° SSW 20:31:11 24° SSE 20:34:20 17° ESE visible
13 May ? 22:11:45 10° WSW 22:15:40 30° SSW 22:15:40 30° SSW visible
14 May ? 20:01:55 10° SSW 20:07:21 25° SSE 20:12:19 10° ESE visible
14 May ? 21:47:44 10° WSW 21:53:48 39° S 21:53:59 39° S visible
14 May ? 23:34:45 10° WSW 23:35:17 12° WSW 23:35:17 12° WSW visible
15 May ? 19:37:55 10° SSW 19:43:29 26° SSE 19:48:38 10° ESE visible
15 May ? 21:23:45 10° WSW 21:29:58 40° S 21:31:56 32° SE visible
15 May ? 23:10:46 10° WSW 23:13:12 21° WSW 23:13:12 21° WSW visible
16 May ? 20:59:45 10° WSW 21:06:07 41° S 21:09:37 22° ESE visible
16 May ? 22:46:47 10° WSW 22:50:53 31° SW 22:50:53 31° SW visible
17 May ? 20:35:46 10° WSW 20:42:16 42° S 20:47:08 15° ESE visible
17 May ? 22:22:46 10° WSW 22:28:22 38° SSW 22:28:22 38° SSW visible
18 May ? 20:11:46 10° WSW 20:18:23 42° S 20:24:22 10° ESE visible
18 May ? 21:58:47 10° WSW 22:05:00 39° SSW 22:05:45 38° S visible
18 May ? 23:46:40 10° WSW 23:46:59 11° WSW 23:46:59 11° WSW visible
19 May ? 19:47:47 10° WSW 19:54:30 43° S 20:00:38 10° ESE visible
19 May ? 21:34:47 10° WSW 21:41:09 40° SSW 21:43:03 32° SSE visible
19 May ? 23:22:39 10° WSW 23:24:18 15° WSW 23:24:18 15° WSW visible
20 May ? 21:10:47 10° WSW 21:17:17 41° SSW 21:20:18 26° SE visible
20 May ? 22:58:37 10° WSW 23:01:32 19° SW 23:01:32 19° SW visible
21 May ? 20:46:47 10° WSW 20:53:24 41° SSW 20:57:31 20° SE visible
21 May ? 22:34:36 10° WSW 22:38:45 22° SW 22:38:45 22° SW visible
